{"data":{"norad_id":53991,"intl_designator":"2022-125AD","name":"STARLINK-5118","alt_names":[],"object_type":"PAYLOAD","status":"ACTIVE","operator":null,"country":"US","launch_date":"2022-10-05","launch_site_code":"AFWTR","launch_vehicle":null,"mission":null,"orbit_class":"UNKNOWN","rcs_meters":null,"size_class":null,"mass_kg":null,"dimensions":null,"purposes":["comms"],"wikipedia_slug":null,"has_3d_model":false,"image_url":null,"decayed_at":null,"tle_current":{"epoch":"2026-09-20T20:24:36.335520Z","epoch_age_seconds":56831,"freshness":"FRESH","line1":"1 53991U 22125AD  26263.85042055  .00000507  00000+0  25450-4 0  9998","line2":"2 53991  53.1625  36.2041 0001128  80.1687 279.9443 15.35402646219218","mean_motion":15.35402646,"eccentricity":0.0001128,"inclination_deg":53.1625,"raan_deg":36.2041,"arg_perigee_deg":80.1687,"mean_anomaly_deg":279.9443,"bstar":2.545e-5,"rev_number":21921,"period_min":93.786473779465,"perigee_km":458.95347600818,"apogee_km":460.49609762729,"semimajor_km":6837.8617868177,"source":"CELESTRAK","updated_at":"2026-09-21T09:00:33.044397Z"}}}